Location: Buckland
(65.9785°N, 161.1281°W)
Time: 21:46:56
(UTC+00:00)

PRISM - Pass Details

Date: 23 January 2021
Orbit: 565 x 584 km, 98.2° (Epoch: 06 March)

Event Time Altitude Azimuth Distance (km) Brightness Sun altitude
Rises 13:14:29 0° 21° (NNE) 2,789 ? -38.2°
Reaches altitude 10° 13:16:47 10° 30° (NNE) 1,890 ? -38.1°
Enters shadow 13:16:52 11° 31° (NNE) 1,858 ? -38.0°
